Regional Weather Roundup
Issued by NWS

Home | Current Version | Previous Version | Text Only | Print | Product List | Glossary On
Versions: 1 2 3 4 5 6 7 8 9 10 11 12 13 14 15 16 17 18 19 20 21 22 23 24 25 26 27 28
000
ASUS44 KJAN 280210
RWRMS

MISSISSIPPI HOURLY WEATHER ROUNDUP
NATIONAL WEATHER SERVICE JACKSON MS
800 PM CST MON FEB 27 2017

NOTE: "FAIR: INDICATES FEW OR NO CLOUDS BELOW 12,000 FEET WITH NO
SIGNIFICANT WEATHER AND/OR OBSTRUCTIONS TO VISIBILITY.

MSZ001>002-007>008-010>013-018>021-025>028-034>036-280300-
NORTHWEST MISSISSIPPI

CITY           SKY/WX    TMP DP  RH WIND       PRES   REMARKS
BATESVILLE     CLOUDY    56  52  86 E3        30.12R
CLEVELAND      CLOUDY    58  58 100 E7        30.07S
GREENWOOD      CLOUDY    60  55  83 S8        30.09R
GREENVILLE     MOCLDY    60  56  86 SE10      30.05S
OLIVE BRANCH   MOCLDY   N/A N/A N/A SE9       30.10R
OXFORD         CLOUDY    54  50  87 SE7       30.13S
TUNICA         CLOUDY    55  52  88 SE6       30.09S
WINONA         MOCLDY    56  56 100 SE5       30.11S
$$

MSZ003>006-009-014>017-022>024-029>033-037>039-280300-
NORTHEAST MISSISSIPPI

CITY           SKY/WX    TMP DP  RH WIND       PRES   REMARKS
COLUMBUS AFB   CLOUDY    57  56  95 SE8       30.15S
CORINTH        FAIR      55  50  82 SE8       30.12S
GOLDN TRIANGLE CLOUDY    55  52  88 SE9       30.12S
STARKVILLE     FOG       55  54  94 SE6       30.16S VSB 1/2
TUPELO         MOCLDY    56  51  84 SE8       30.14R
$$

MSZ040-058-280300-
CENTRAL MISSISSIPPI

CITY           SKY/WX    TMP DP  RH WIND       PRES   REMARKS
JACKSON INTL   MOCLDY    62  58  86 SE14      30.12S
JACKSON HAWKNS CLOUDY    62  58  86 SE10      30.11S
MADISON        MOCLDY   N/A N/A N/A SE5       30.11S
MERIDIAN KEY   MOCLDY    60  58  92 S8        30.17R
MERIDIAN NAS   CLOUDY    59  55  87 SE9       30.18S
VICKSBURG VKS  CLOUDY    64  57  77 SE10G18   30.05S
$$

MSZ059>079-280300-
SOUTH MISSISSIPPI

CITY           SKY/WX    TMP DP  RH WIND       PRES   REMARKS
BROOKHAVEN     CLOUDY   N/A N/A N/A E8        30.12S
HATTIESBURG    CLOUDY    59  57  93 E8        30.17S
LAUREL         CLOUDY    59  59 100 SE8       30.18R
MCCOMB         CLOUDY    62  59  90 E7        30.11S
NATCHEZ        CLEAR     64  57  77 E10G20    30.07S
PINE BELT      CLOUDY    59  55  88 E7        30.19R
$$

MSZ080>082-280300-
COASTAL MISSISSIPPI

CITY           SKY/WX    TMP DP  RH WIND       PRES   REMARKS
BAY ST LOUIS   MOCLDY    68  64  88 SE5       30.15R
BILOXI         CLEAR     69  65  88 SE10      30.16R
PASCAGOULA     MOCLDY    63  57  81 NE5       30.19R
GULFPORT       CLOUDY    69  67  93 SE13      30.16R
$$

LAZ007>009-015>016-023>026-280300-
NORTHEAST LOUISIANA

CITY           SKY/WX    TMP DP  RH WIND       PRES   REMARKS
BASTROP        MOCLDY    62  61  95 E3        30.05S
TALLULAH/VBURG NOT AVBL
VIDALIA        FAIR      64  60  87 SE10      30.05S
$$




USA.gov is the U.S. government's official web portal to all federal, state and local government web resources and services.